Location: Bucharest
(44.4268°N, 26.1025°E)
Time: 00:12:09
(UTC+03:00)

O/OREOS (USA 219) - Pass Details

Date: 05 July 2022
Orbit: 621 x 646 km, 72.0° (Epoch: 22 May)

Event Time Altitude Azimuth Distance (km) Brightness Sun altitude
Rises 22:59:53 0° 351° (N) 2,965 ? -15.6°
Reaches altitude 10° 23:03:38 10° 22° (NNE) 2,053 ? -15.9°
Maximum altitude 23:05:29 12° 46° (NE) 1,910 ? -16.1°
Drops below altitude 10° 23:07:18 10° 70° (ENE) 2,050 ? -16.3°
Enters shadow 23:08:55 - 86° (E) 2,367 ? -16.4°
